Location: College Rock
(37.2713°N, 119.1740°W)
Time: 04:09:23
(UTC+00:00)

Cosmos 2180 Rocket - Pass Details

Date: 29 October 2020
Orbit: 953 x 1005 km, 82.9° (Epoch: 23 November)

Event Time Altitude Azimuth Distance (km) Brightness Sun altitude
Rises 12:11:29 0° 348° (NNW) 3,684 7.4 -25.8°
Reaches altitude 10° 12:14:04 10° 344° (NNW) 2,724 6.7 -25.3°
Enters shadow 12:16:58 28° 332° (NNW) 1,733 5.5 -24.8°
Exits shadow 12:19:18 50° 296° (WNW) 1,209 4.6 -24.3°
Maximum altitude 12:20:06 54° 269° (W) 1,162 4.5 -24.1°
Drops below altitude 10° 12:26:01 10° 193° (SSW) 2,679 6.7 -23.0°
Sets 12:28:33 0° 189° (S) 3,617 7.4 -22.5°
